CZ-4C DEB

Satellite information

Favourite Embed

Satellite Type and Status

DEBRISIN ORBIT

Key statistics

Satellite CZ-4C DEB at a glance.

Uptime

5359

Days in orbit

Revolutions

≈ 13.7

Per day

Orbit

SSO

Sun Synchronous Orbit

Inclination

98.7

Latest

Satellite identification and parameters

Extended collection of information and parameters for CZ-4C DEB.

Object identification

Identified? True

Debris? True

Object name: CZ-4C DEB

International designator: 2010-059E

Object number (NORAD): 38295

Object ID (CCSDS): 38295

Country: PEOPLES REPUBLIC OF CHINA (PRC)

Current information (Y/N): Y

RCS size: SMALL

Orbital parameters

Period: 105.024 minutes

Inclination: 98.681 deg

SMA: 7373.727 km

Apoapsis: 1194.565 km

Periapsis: 796.619 km

RAAN: 52.7406 deg

Eccentricy: 0.026984

Argument of periapsis: 35.2374 deg

Mean anomaly: 116.8089 deg

Mean motion: 13.71109596 rev/day

Mean motion (dot): 0.00000225 rev/day2

B* drag term: 0.00022642 1/REarth

Two-line elements (TLE)

Creation date: July 6, 2025, 6:05 p.m.

Reference frame: TEME

Reference center: EARTH

Epoch: July 6, 2025, 2:36 a.m. UTC

TLE line 0: 0 CZ-4C DEB

TLE line 1: 1 38295U 10059E 25187.10856914 .00000225 00000-0 22642-3 0 9997

TLE line 2: 2 38295 98.6810 52.7406 0269840 35.2374 116.8089 13.71109596621046

Live tracking on map

Real-time ground track for satellite CZ-4C DEB.

In-orbit conjunctions

A list of the most updated potential collisions computed for object CZ-4C DEB.

Target Orbit TCA Probability of collision Miss distance Type
COSMOS 2061 LEO 2025-01-02 11:50:47 0.0002336494 528.0 (m) PAYLOAD
CZ-6A DEB LEO 2024-11-26 13:34:19 0.0001362282 952.0 (m) DEBRIS

Associated space launch

CZ-4C DEB was lifted into orbit during the mission ‘Long March 4C | Feng Yun-3B’, on board a Long March 4C space rocket.

The launch took place on Nov. 4, 2010, 6:37 p.m. from Launch Complex 7.

For more information about the launch, click the button.

Launch to space Long March 4C | Feng Yun-3B
Long March 4C | Feng Yun-3B

Agency: N/A

Status: Launch Successful

Launch date: Nov. 4, 2010, 6:37 p.m. UTC

Rocket: Long March 4C

Launch pad: Launch Complex 7

Location: Taiyuan Satellite Launch Center, People's Republic of China

...

Latest news about this satellite

There are no fresh news available about this satellite. Check back as we update our databases every day.


Newsletter sign-up

Weekly statistics, charts and insights to help you stay on top of the space industry.